Simultaneous Nadir Overpasses (SNOs) Predictions

Prediction of SNOs between METOP-A and NOAA-19 Satellite Orbit:

Table of predicted SNOs for the next 14.0 days since TLE Epoch: 6/15/2018
Index Date (METOP-A) Time (METOP-A) Lat,Lon (METOP-A) SZA (METOP-A ) Date (NOAA-19) Time (NOAA-19) Lat,Lon (NOAA-19) SZA (NOAA-19 ) Distance(km) Time Diff (sec)
1 06/21/2018 21:41:51 78.62,-136.64 55.26 06/21/2018 21:40:36 78.59,-136.67 55.22 3.02 75
2 06/21/2018 22:32:33 -78.58, 30.47 124.79 06/21/2018 22:31:41 -78.62, 30.42 124.77 3.67 52
3 06/21/2018 23:23:13 78.60,-162.11 55.23 06/21/2018 23:22:37 78.59,-162.14 55.22 1.37 36
4 06/22/2018 00:13:54 -78.60, 5.23 124.77 06/22/2018 00:13:41 -78.57, 5.19 124.80 3.05 13
5 06/22/2018 01:04:35 78.58, 172.43 55.21 06/22/2018 01:04:38 78.58, 172.40 55.21 0.87 3
6 06/22/2018 01:55:16 -78.58, -20.23 124.79 06/22/2018 01:55:42 -78.57, -20.28 124.80 1.51 26
7 06/22/2018 02:45:56 78.56, 146.96 55.18 06/22/2018 02:46:38 78.58, 146.93 55.21 2.42 42
8 06/22/2018 03:36:37 -78.56, -45.70 124.82 06/22/2018 03:37:42 -78.56, -45.75 124.81 1.28 65




NCC Satellite Simultaneous Nadir Overpasses (SNOs) Prediction Service
